Regional Weather Roundup
Issued by NWS

Home | Current Version | Previous Version | Graphics & Text | Print | Product List | Glossary Off
Versions: 1 2 3 4 5 6 7 8 9 10 11 12 13 14 15 16 17 18 19 20 21 22 23 24 25 26 27 28 29 30 31 32 33 34 35 36 37 38 39 40 41 42 43 44 45 46 47 48 49 50

000
ASUS43 KMKX 010921
RWRWI

WISCONSIN REGIONAL WEATHER ROUNDUP
NATIONAL WEATHER SERVICE MILWAUKEE/SULLIVAN WI
400 AM CDT MON SEP 01 2014

NOTE: "FAIR" INDICATES FEW OR NO CLOUDS BELOW 12,000 FEET WITH NO
SIGNIFICANT WEATHER AND/OR OBSTRUCTIONS TO VISIBILITY.

WIZ001-002-006>008-014>016-023>028-011000-
NORTHWEST WISCONSIN

CITY           SKY/WX    TMP DP  RH WIND       PRES   REMARKS
SUPERIOR ARPT  RAIN      64  64  99 SW3       29.57F
ASHLAND        RAIN      65  64  97 S8        29.58R FOG
HAYWARD        RAIN      66  65  96 SW8       29.61S FOG
SIREN          CLOUDY    65  64  96 SW6       29.63R
RICE LAKE      LGT RAIN  65  64  93 S8        29.67R
LADYSMITH      CLOUDY    66  64  96 S7        29.66R
EAU CLAIRE     CLOUDY    65  65 100 W3        29.66R
MENOMONIE      LGT RAIN  66  65  95 SW6       29.67R
NEW RICHMOND   HVY RAIN  65  64  99 SW18      29.67R
OSCEOLA        RAIN      66  66 100 S13       29.67R
$$

WIZ003>005-009-010-017-018-011000-
NORTH CENTRAL WISCONSIN

CITY           SKY/WX    TMP DP  RH WIND       PRES   REMARKS
WOODRUFF       CLOUDY    67  65  91 S9        29.63F
RHINELANDER    CLOUDY    67  65  93 S12G21    29.67F
EAGLE RIVER    CLOUDY    66  66 100 S6        29.64F
LAND O LAKES   CLOUDY    66  65  98 S7        29.65F
PHILLIPS       RAIN      64  63  96 SW13G25   29.64R
TOMAHAWK       CLOUDY    65  63  91 SW5       29.68R
MEDFORD        DRIZZLE   64  60  84 SW13G18   29.69R
MERRILL        CLOUDY    68  64  85 SW8       29.68S
$$

WIZ029-030-035-036-043>047-011000-
CENTRAL WISCONSIN

CITY           SKY/WX    TMP DP  RH WIND       PRES   REMARKS
WAUSAU         CLOUDY    70  59  68 SW9       29.68S
MOSINEE        CLOUDY    68  59  73 SW8       29.71R
MARSHFIELD     LGT RAIN  67  59  75 SW9       29.69F
STEVENS POINT  CLOUDY    69  57  67 S8        29.70S
WAUPACA        CLOUDY    73  69  87 S5        29.72F
WAUTOMA        CLOUDY    72  60  65 S7        29.72F
WISC RAPIDS    CLOUDY    72  57  59 SW12      29.70F
CAMP DOUGLAS   CLOUDY    71  59  67 SE7       29.67F
$$

WIZ011>013-019>022-031-037>040-048>050-011000-
NORTHEAST WISCONSIN

CITY           SKY/WX    TMP DP  RH WIND       PRES   REMARKS
ANTIGO         MOCLDY    66  65  98 S9        29.71S
STURGEON BAY   MOCLDY    68  64  88 S14       29.75S
GREEN BAY      MOCLDY    70  68  93 S7        29.73F
MANITOWOC      CLOUDY    67  66  97 S5        29.76F
APPLETON       MOCLDY    72  70  94 S12       29.74F
CLINTONVILLE   CLOUDY    72  68  88 S7        29.70F
OSHKOSH        MOCLDY    72  69  90 S12       29.74F
$$

WIZ032>034-041-042-053>061-011000-
SOUTHWEST WISCONSIN

CITY           SKY/WX    TMP DP  RH WIND       PRES   REMARKS
LA CROSSE      CLOUDY    66  62  87 CALM      29.65R
SPARTA         CLOUDY    73  53  49 W14       29.67F
VIROQUA        CLOUDY    67  58  73 S18G26    29.67F
BOSCOBEL       CLOUDY    67  62  84 SW6       29.70F
PRAIRIE DU CHI DRIZZLE   65  62  89 SE8       29.69R
PLATTEVILLE    CLOUDY    65  64  96 S10       29.79F
$$

WIZ056-057-062-063-064-067-068-011000-
SOUTH CENTRAL WISCONSIN

CITY           SKY/WX    TMP DP  RH WIND       PRES   REMARKS
BARABOO/DELLS  MOCLDY    68  57  68 S10       29.73F
LONE ROCK      LGT RAIN  72  61  68 SE12      29.71F
WATERTOWN      MOCLDY    70  70 100 S5        29.77F
MADISON        PTCLDY    73  61  65 W6        29.78S
MIDDLETON      FAIR      71  58  64 SW8       29.79S
MONROE         MOCLDY    68  61  77 W16       29.80F
JANESVILLE     CLOUDY    72  70  94 S3        29.78S
$$

WIZ051-052-058>065-066-070>072-011000-
SOUTHEAST WISCONSIN

CITY           SKY/WX    TMP DP  RH WIND       PRES   REMARKS
MILWAUKEE      MOCLDY    73  69  87 SW10      29.79F
WAUKESHA       PTCLDY    68  66  94 S3        29.80F FOG
MILWAUKEE/TIMM PTCLDY    72  66  83 S9        29.79F
RACINE         PTCLDY    72  69  90 S7        29.81F
BURLINGTON     PTCLDY    69  68  97 S6        29.79F
KENOSHA        PTCLDY    71  69  93 S7        29.81F
FOND DU LAC    MOCLDY    72  68  87 S12       29.76F
SHEBOYGAN      MOCLDY    67  65  93 SW7       29.77F FOG
WEST BEND      CLOUDY    70  64  83 SW6       29.79S
JUNEAU         MOCLDY    69  68  96 S10       29.78F
$$

LSZ147-162-011000-
LAKE SUPERIOR

STATION/POSITION TIME  TEMP    WIND        PRES    WAVE
                       AIR SEA DIR/SP/G            HT/PER
                 (UTC) (F)     (DEG/KT/KT) (MB)    (FT/S)
W MID LAKE BUOY  0850   62 58  180/  8/  8 1000.7F   2/ 5
DEVILS ISLAND    0900   65     260/ 12/ 12  999.9F
PORT WING        0800   65     210/  2/  6 1001.4
SAXON HARBOR     0820   68      CALM  / 21 1001.0F
$$

LMZ867-665-643>646-011000-
LAKE MICHIGAN

STATION/POSITION TIME  TEMP    WIND        PRES    WAVE
                       AIR SEA DIR/SP/G            HT/PER
                 (UTC) (F)     (DEG/KT/KT) (MB)    (FT/S)
N MID LAKE BUOY  0850   68 65  180/ 16/ 17 1007.1F
NORTHPORT PIER   0800   66     150/  8/ 11 1007.8F
KEWAUNEE LAKESHO 0900   62     180/ 10/ 11 1006.8F
SHEBOYGAN LAKESH 0900   69 55  190/ 14/ 15 1008.0F
ATWATER BUOY     0900   70     160/ 10/ 12 1009.7F
MILWAUKEE LAKESH 0900   74     220/ 10/ 15   N/A
S MID LAKE BUOY  0850   72 70  190/ 17/ 19 1009.5F   2/ 4
KENOSHA   LAKESH 0800   74     210/  9/ 12 1009.5S
$$

TC  - TEMPERATURE IN CELSIUS
VSB - VISIBILITY IN STATUTE MILES
WCI - WIND CHILL INDEX
HX  - HEAT INDEX




USA.gov is the U.S. government's official web portal to all federal, state and local government web resources and services.